{"data":{"norad_id":56713,"intl_designator":"2023-068D","name":"ONEWEB-0677","alt_names":[],"object_type":"PAYLOAD","status":"ACTIVE","operator":null,"country":"UK","launch_date":"2023-05-20","launch_site_code":"AFWTR","launch_vehicle":null,"mission":null,"orbit_class":"UNKNOWN","rcs_meters":null,"size_class":null,"mass_kg":null,"dimensions":null,"purposes":["comms"],"wikipedia_slug":null,"has_3d_model":false,"image_url":null,"decayed_at":null,"tle_current":{"epoch":"2026-09-19T22:58:59.789280Z","epoch_age_seconds":65232,"freshness":"FRESH","line1":"1 56713U 23068D   26262.95763645  .00000026  00000+0  31627-4 0  9994","line2":"2 56713  87.9143 255.5281 0002169  97.3312 262.8068 13.20771936162311","mean_motion":13.20771936,"eccentricity":0.0002169,"inclination_deg":87.9143,"raan_deg":255.5281,"arg_perigee_deg":97.3312,"mean_anomaly_deg":262.8068,"bstar":3.1627e-5,"rev_number":16231,"period_min":109.02715001358,"perigee_km":1180.1331586639,"apogee_km":1183.4126475798,"semimajor_km":7559.9099031218,"source":"CELESTRAK","updated_at":"2026-09-20T09:00:44.794926Z"}}}